Конкорд

США     43°11′51″N   71°31′47″W
темп.,
°C
ветер,
м/с
пор.,
м/с
влажн.,
%
обл.,
%
осадки,
мм/ч
давл.,
гПа
погр.,
м
19 апреля, пн
пн1923:00+4зсз11945 0.0 101010
02:00+3ссз11949 0.0 101010
05:00+4зюз119394 0.0 101010
08:00+7з1280100 0.0 1011152
11:00+14зсз244873 0.0 10101579
14:00+14зюз345582 0.1 10091358
17:00+14з3561100 0.4 10091137
20:00+9юз248459 0.5 101090
20 апреля, вт
вт2023:00+6ююз11955 0.0 101116
02:00+5зсз11943 0.0 101010
05:00+4з119351 0.0 101010
08:00+9ююз137240 0.0 1010192
11:00+16зюз61050100 0.0 10101945
14:00+14з7135299 0.2 10111855
17:00+14з6124899 0.0 10121927
20:00+8з411615 0.0 1014689
21 апреля, ср
ср2123:00+5з2774100 0.0 1015162
02:00+5з1771100 0.0 1015247
05:00+4ссв1193100 1.8 101498
08:00+6в2585100 1.8 1012388
11:00+13ююз2871100 0.1 10071144
14:00+9зсз3791100 1.4 1003511
17:00+15ю61673100 1.1 9971717
20:00+6зсз3109465 8.9 997476
22 апреля, чт
чт2223:00+1зсз7148693 0.0 999771
02:00−1зсз816805 0.0 998992
05:00−1зсз7147510 0.0 10001217
08:00+1зсз7155929 0.0 10011696
11:00+4зсз81342100 0.0 10022417
14:00+3зсз71453100 0.1 10022396
17:00+4зсз71559100 0.4 10042215
20:00+2з6156367 0.4 10061616
23 апреля, пт
пт2323:00+1з614715 0.0 10071232
02:00+1зюз513705 0.0 1006963
05:00+2зюз61569100 0.0 10051319
08:00+4зсз614695 0.1 10061575
11:00+7зсз71340100 0.1 10071834
14:00+10зсз711405 0.1 10071757
17:00+10зсз611525 0.0 10081744
20:00+6зсз411735 0.0 1010698